Regional Weather Roundup
Issued by NWS

Home | Current Version | Previous Version | Text Only | Print | Product List | Glossary Off
Versions: 1 2 3 4 5 6 7 8 9 10 11 12 13 14 15 16 17 18 19 20 21 22 23 24 25 26 27 28 29 30 31 32 33 34 35 36 37 38 39 40 41 42 43 44 45 46 47

000
ASUS45 KCYS 131510
RWRWY

WYOMING REGIONAL WEATHER ROUNDUP
NATIONAL WEATHER SERVICE CHEYENNE WY
900 AM MDT SUN JUL 13 2014

NOTE:  "FAIR" INDICATES FEW OR NO CLOUDS BELOW 12,000 FEET
WITH NO SIGNIFICANT WEATHER AND/OR OBSTRUCTIONS TO VISIBILITY.

WYZ001-131600-
YELLOWSTONE NATIONAL PARK

CITY           SKY/WX    TMP DP  RH WIND       PRES   REMARKS
LK YELLOWSTONE   N/A     50  50 100 CALM      30.56S
W YELLOWSTONE  NOT AVBL

$$
WYZ002>013-054>058-071-098>099-131600-
NORTHERN WYOMING

CITY           SKY/WX    TMP DP  RH WIND       PRES   REMARKS
JACKSON        SUNNY     59  48  67 CALM      30.47S
CODY           SUNNY     72  55  56 CALM      30.33R
GREYBULL       NOT AVBL
WORLAND        NOT AVBL
SHERIDAN       NOT AVBL
BUFFALO        SUNNY     75  44  33 N5        30.31S
GILLETTE       SUNNY     72  51  47 CALM      30.27F
HULETT         FAIR      72  52  49 MISG      30.28
NEWCASTLE      FAIR      72  54  53 CALM      30.28

$$
WYZ014>020-022>026-101>103-131600-
CENTRAL WYOMING

CITY           SKY/WX    TMP DP  RH WIND       PRES   REMARKS
BIG PINEY      NOT AVBL
PINEDALE       SUNNY     61  52  72 NW5       30.48F
DUBOIS         FAIR      59  45  58 NW9       30.47R
LANDER         NOT AVBL
RIVERTON       NOT AVBL
CASPER         SUNNY     72  54  53 SW7       30.35S
DOUGLAS        CLOUDY    68  55  63 NW6       30.33S

$$
WYZ021-027>030-104>119-131600-
SOUTHERN WYOMING

CITY           SKY/WX    TMP DP  RH WIND       PRES   REMARKS
EVANSTON       NOT AVBL
KEMMERER       SUNNY     66  48  52 N3        30.48S
FORT BRIDGER   FAIR      65  51  61 E6        30.48S
ROCK SPRINGS   NOT AVBL
DIXON          FAIR      70  48  45 CALM      30.42S
RAWLINS        SUNNY     68  52  56 E8        30.43S
SARATOGA       FAIR      64  52  63 CALM      30.45S
LARAMIE        SUNNY     64  52  64 CALM      30.45S
CHEYENNE       CLOUDY    68  58  70 E6        30.39R
TORRINGTON     SUNNY     69  62  78 W5        30.28R

$$


USA.gov is the U.S. government's official web portal to all federal, state and local government web resources and services.